Location: Doumy
(43.4500°N, 0.3667°W)
Time: 13:48:19
(UTC+00:00)

Daily predictions for brighter satellites

Satellite Brightness Start Highest point End
(mag) Time Altitude Azimuth Time Altitude Azimuth Time Altitude Azimuth
Cosmos 1603 3.8 20:01:42 10° NNW 20:07:26 75° ENE 20:13:05 10° SSE
CSL-04 Rocket 3.9 20:02:56 10° S 20:08:24 80° WSW 20:13:58 10° NNW
ISS -1.9 20:12:15 10° W 20:15:18 33° NNW 20:18:21 10° NE
SPOT 5 3.4 20:11:14 10° SE 20:15:53 47° ENE 20:20:47 10° N
Cosmos 1607 4.5 20:09:58 10° NW 20:16:14 60° WSW 20:22:19 10° SSE
Cosmos 921 Rocket 4.1 20:14:15 10° N 20:17:53 28° ENE 20:21:30 10° SE
Cosmos 2112 Rocket 4.1 20:15:30 10° NNW 20:20:45 84° WSW 20:26:01 10° SSE
USA 186 4.0 20:19:10 10° SSW 20:21:44 24° W 20:24:18 10° NW
Cosmos 1328 3.7 20:18:10 10° S 20:21:57 64° E 20:25:43 10° NNE
Cosmos 1825 2.5 20:19:16 10° SSW 20:22:36 59° W 20:25:58 10° N
USA 215 3.4 20:16:31 10° SE 20:23:04 82° NE 20:29:40 10° NW
Cosmos 494 Rocket 4.4 20:20:13 10° N 20:25:21 51° ENE 20:30:26 10° SE
NOSS 2-3 (D) 3.9 20:22:42 10° S 20:25:59 32° ESE 20:29:26 10° NE
Okean-O 2.6 20:23:53 10° SSE 20:28:16 77° ENE 20:32:41 10° N
ARGOS Delta rocket 3.9 20:24:15 10° S 20:28:52 85° WSW 20:33:49 10° NNW
Timation 2 Rocket 4.3 20:24:43 10° S 20:30:41 43° ESE 20:36:26 10° NE
Gbstr 26 Del rocket 4.2 20:27:01 10° W 20:31:04 48° NNW 20:35:59 10° NE
Cosmos 1125 Rocket 4.5 20:28:36 10° SSE 20:33:02 28° E 20:37:30 10° NE
CZ-4C R/B 3.4 20:31:19 10° NNE 20:34:52 47° E 20:38:16 10° S
USA 276 3.7 20:36:46 10° NW 20:39:21 28° NNE 20:42:01 10° ENE
Cosmos 2084 3.3 20:37:05 10° SSW 20:41:12 59° ESE 20:45:09 10° NE
NOSS 2-2 (E) 2.6 20:45:29 10° SSW 20:48:53 70° SE 20:51:59 10° NE
NOSS 2-2 (C) 3.1 20:45:56 10° SW 20:49:14 68° NW 20:52:19 10° NNE
In-Cosmos 22 Rocket 4.4 20:45:33 10° S 20:51:08 54° E 20:56:36 10° NNE
BREEZE-M DEB (TANK) 3.9 20:51:27 10° NW 20:54:12 52° NNE 21:01:22 10° ESE
Nadezhda 3 Rocket 4.0 20:48:37 10° N 20:54:45 66° E 21:00:16 13° SSE
NOSS 2-3 (E) 3.0 20:51:22 10° SSW 20:54:59 76° SE 20:58:54 10° NE
Cosmos 1844 4.3 20:49:46 10° SW 20:55:30 64° WNW 21:01:16 10° NNE
Terra 2.0 20:52:39 15° SSE 20:56:29 58° ENE 21:01:08 10° N
Meteor 1-21 Rocket 4.2 20:57:01 10° S 21:02:34 85° W 21:08:08 10° N
Cosmos 1437 Rocket 4.0 21:07:19 19° ESE 21:08:01 20° E 21:10:43 10° NE
ATLAS CENTAUR R/B 1.4 21:04:22 10° NNW 21:08:22 64° NE 21:10:52 22° SE
GP-B 4.1 21:04:23 10° N 21:08:36 46° W 21:12:48 10° SSW
Okean 1 Rocket 4.5 21:07:02 10° NNW 21:11:09 37° W 21:15:15 10° SSW
NOSS 2-3 (C) 3.4 21:09:10 10° SW 21:12:45 70° NW 21:16:41 10° NNE
Cosmos 1833 Rocket 3.6 21:09:31 10° N 21:14:46 37° ENE 21:18:22 18° ESE
Meteor 2-1 Rocket 4.2 21:09:32 10° N 21:15:08 67° ENE 21:18:58 20° SSE
Cosmos 1455 Rocket 3.1 21:12:03 10° N 21:16:27 78° W 21:19:45 17° S
Cosmos 1975 Rocket 3.0 21:12:46 11° S 21:17:05 86° E 21:21:35 10° N
Cosmos 1025 Rocket 4.1 21:13:32 10° SSW 21:17:35 43° WNW 21:21:40 10° N
Cosmos 44 3.7 21:12:51 10° S 21:17:53 45° ESE 21:22:46 10° NE
Orbus 7S? 2.4 21:17:37 10° NW 21:20:19 82° SW 21:21:21 35° SE
Lacrosse 5 3.6 21:15:49 10° W 21:20:27 36° NNW 21:25:08 10° NE
ERS-1 Rocket 3.2 21:18:04 15° S 21:22:10 69° WSW 21:27:10 10° NNW
Spot 2 Rocket 3.5 21:19:30 19° SSE 21:23:10 89° ENE 21:28:19 10° NNW
Cosmos 220 Rocket 4.4 21:22:20 10° N 21:26:20 46° ENE 21:28:09 28° ESE
NOSS 2-2 (D) 4.1 21:23:32 10° WSW 21:26:43 41° NW 21:29:42 10° NNE
ATLAS 5 CENTAUR R/B 4.3 21:24:49 10° WNW 21:27:04 16° NW 21:29:28 10° N
Cosmos 2082 Rocket 4.3 21:24:00 10° N 21:27:28 16° NE 21:30:55 10° E
Landsat 5 4.0 21:28:24 10° NNE 21:32:36 42° E 21:34:11 30° SSE
Cosmos 2278 Rocket 3.2 21:31:13 24° SE 21:32:42 27° ESE 21:37:21 10° NE
Cosmos 1606 2.4 21:33:12 10° N 21:36:47 89° E 21:38:05 37° S
Cosmos 2298 Rocket 4.1 21:33:31 21° S 21:36:59 56° ESE 21:42:12 10° NNE
MetOp-A 4.3 21:35:02 27° SE 21:37:02 44° ENE 21:41:12 10° N
Okean O Rocket 4.4 21:36:11 10° WSW 21:37:13 11° W 21:38:16 10° WNW
Cosmos 2341 Rocket 4.1 21:33:38 20° S 21:37:58 64° E 21:44:14 10° NNE
Cosmos 1339 Rocket 4.4 21:33:02 10° N 21:39:17 90° WSW 21:43:24 22° S
Meteor 1-11 4.4 21:35:28 10° SSW 21:41:12 75° W 21:46:54 10° N
Cosmos 1536 Rocket 3.8 21:47:10 37° SE 21:48:20 47° E 21:52:29 10° NNE
Cosmos 1869 3.3 21:44:50 10° NNW 21:48:38 70° W 21:50:07 35° S
Ariane Rocket 3.4 21:47:25 22° S 21:50:36 57° W 21:55:36 10° NNW
ISS -1.1 21:50:15 10° NW 21:52:45 19° N 21:55:14 10° NE
MOS 1 Rocket 4.4 21:50:51 17° SSW 21:54:04 37° W 21:58:16 10° NNW
ARIANE 5 R/B 3.8 21:58:54 26° E 22:00:07 30° ENE 22:03:59 10° N
ATLAS 3B R/B 3.6 22:01:26 28° SE 22:02:51 30° ESE 22:09:07 10° NE
GENESIS II 4.0 21:59:31 10° NNW 22:03:03 63° NE 22:03:31 55° E
BREEZE-M DEB (TANK) 3.0 21:54:14 10° WNW 22:04:52 80° SSW 22:06:11 43° SE
USA 215 4.4 22:03:13 20° S 22:06:29 29° SW 22:12:05 10° WNW
Cosmos 2228 2.9 22:02:44 10° N 22:06:57 81° W 22:08:06 47° S
Cosmos 1943 Rocket 2.9 22:08:20 32° ESE 22:09:02 33° ESE 22:14:02 10° NE
Cosmos 1821 Rocket 4.2 22:09:48 34° SSE 22:12:18 55° E 22:18:28 10° NNE
USA 276 2.6 22:10:47 10° WNW 22:13:09 50° W 22:13:09 50° W
Cosmos 2150 Rocket 4.4 22:14:23 16° SSW 22:18:39 66° WNW 22:24:06 10° NNE
NOSS 3-1 (C) 2.9 22:24:27 24° SW 22:27:24 88° NW 22:33:09 10° NE
SeaSat 1 3.8 22:26:56 21° E 22:29:01 29° NE 22:33:14 10° N
Terra 4.2 22:31:38 10° SW 22:34:27 16° W 22:37:16 10° NW
Cosmos 2366 rocket 4.4 22:30:37 23° SSW 22:34:30 59° W 22:40:35 10° N
Cosmos 1812 3.6 22:33:37 10° N 22:36:28 34° ENE 22:36:28 34° ENE
BREEZE-M R/B 3.9 22:37:13 10° W 22:41:22 71° NNW 22:54:00 10° ENE
PSLV R/B 4.0 22:41:09 10° NNE 22:44:51 61° ENE 22:44:51 61° ENE
Cosmos 1892 Rocket 3.7 22:45:05 56° E 22:45:10 56° E 22:49:32 10° NNE
ATLAS CENTAUR R/B 3.7 22:43:30 10° W 22:45:30 13° WSW 22:45:46 13° WSW
Cosmos 1140 Rocket 4.4 22:48:45 10° N 22:53:31 37° ENE 22:54:49 32° E
Cosmos 2239 Rocket 4.4 22:55:30 47° S 22:57:25 83° E 23:03:40 10° N
Cosmos 1833 Rocket 3.7 22:53:33 10° NW 22:58:36 34° WSW 23:00:03 30° SW
SL-08 R/B 4.3 22:57:35 48° S 22:59:24 85° E 23:05:33 10° N
NOSS 3-1 (A) 2.8 23:03:57 62° SSW 23:04:49 82° ESE 23:10:34 10° NE
Cosmos 2123 Rocket 4.2 22:59:56 10° N 23:06:10 62° E 23:07:51 46° SE
Cosmos 1606 Rocket 3.9 23:02:36 10° NNW 23:06:48 52° W 23:07:01 51° WSW
Cosmos 1726 Rocket 3.5 23:04:43 10° NNW 23:09:01 68° W 23:09:05 67° WSW
Cosmos 1000 Rocket 4.4 23:04:50 10° N 23:11:00 83° W 23:12:37 52° S
Cosmos 2082 Rocket 2.1 23:06:45 10° NNW 23:12:24 87° ENE 23:13:28 61° SSE
Cosmos 2278 Rocket 3.0 23:12:59 21° WSW 23:16:28 46° WNW 23:21:56 10° NNE
Cosmos 2369 Rocket 3.6 23:19:37 23° E 23:19:37 23° E 23:23:37 10° NE
H-2A R/B 2.5 23:20:31 68° NNW 23:20:31 68° NNW 23:23:54 10° NNW
ULPM Upper Stage 3.2 23:16:23 10° NNW 23:20:41 55° NE 23:20:59 54° ENE
PSLV R/B 4.4 23:18:44 10° NNE 23:22:20 40° ENE 23:22:20 40° ENE
Cosmos 489 Rocket 4.4 23:24:24 56° S 23:25:40 73° ESE 23:31:53 10° NNE
ISS -2.0 23:27:12 10° NW 23:30:11 30° NNE 23:30:11 30° NNE
USA 290 4.5 23:30:56 21° WNW 23:30:56 21° WNW 23:33:22 10° N
USA 229 DEB 3.8 23:32:18 44° ESE 23:32:32 45° ESE 23:38:43 10° NE
USA 229 3.8 23:32:27 44° ESE 23:32:40 44° ESE 23:38:50 10° NE
Cosmos 2058 Rocket 3.2 23:30:31 10° NNW 23:34:37 67° WNW 23:34:37 67° WNW
Cosmos 1782 3.6 23:31:36 10° N 23:34:35 43° NE 23:34:35 43° NE
ARIANE 5 R/B 4.0 23:36:22 27° W 23:36:27 27° W 23:40:17 10° NW
CRYOSAT 2 4.2 23:32:52 10° N 23:37:47 79° E 23:37:58 77° SE
CZ-4C R/B 3.4 23:33:10 10° NNW 23:40:16 61° NE 23:45:35 24° ESE
Cosmos 1934 Rocket 4.0 23:39:12 51° SSW 23:40:53 75° W 23:47:07 10° N
COSMOS 2406 3.1 23:36:31 10° NNW 23:42:11 70° WSW 23:42:49 63° SSW
Meteor 2-2 Rocket 4.5 23:36:35 10° N 23:42:17 62° ENE 23:43:24 52° SE
Cosmos 2221 4.5 23:43:22 10° NNE 23:46:26 19° ENE 23:46:52 19° E
Cosmos 1943 Rocket 3.3 23:49:48 23° WSW 23:52:41 38° WNW 23:57:56 10° NNE
Cosmos 2058 4.1 23:54:51 34° WNW 23:54:51 34° WNW 23:58:36 10° N
